Location: Cassano d�Adda
(45.5333°N, 9.5167°E)
Time: 18:47:44
(UTC+00:00)

Cosmos 1980 - Pass Details

Date: 08 December 2019
Orbit: 838 x 849 km, 71.0° (Epoch: 27 January)

Event Time Altitude Azimuth Distance (km) Brightness Sun altitude
Rises 16:47:41 0° 190° (S) 3,374 7.3 -11.7°
Reaches altitude 10° 16:50:09 10° 186° (S) 2,444 6.5 -12.1°
Maximum altitude 16:55:36 55° 110° (ESE) 1,000 3.8 -13.0°
Enters shadow 17:00:35 13° 35° (NE) 2,274 5.5 -13.8°
